Quick links : Home Page : Contact Us : Index : Site Map : Search Site : Ephemerides


(144900) 2004 VG64

Orbital Elements

The following orbital elements are taken from MPO124282
(144900) 2004 VG64
Epoch 2007 Oct. 27.0 TT = JDT 2454400.5                 MPC
M  96.14384              (2000.0)            P               Q
n   1.03452178     Peri.   43.87840     -0.36070549     +0.88770715
a   0.9682250      Node   208.91979     -0.93168534     -0.32878409
e   0.6554237      Incl.   36.27598     +0.04305785     +0.32229963
P   0.95           H   18.3           G   0.15           U   1
From 276 observations at 3 oppositions, 2004-2007, mean residual 0".53.
An explanation of the orbital elements is available.

These orbital elements are also available in forms suitable for loading into a number of popular planetarium-type software programs.


Ephemeris

The following ephemeris is at intervals of five days. A daily ephemeris covering the same time interval is also available.

Personalized ephemerides for this (and other) objects may be generated using the Minor Planet & Comet Ephemeris Service.

Date    TT    R. A. (2000) Decl.     Delta      r     Elong.  Phase     V
2008 04 14    04 20.25   -02 46.7    1.804    1.289    44.1    32.8    21.5
 
2008 05 14    05 30.88   +01 59.2    1.660    1.017    35.2    34.9    20.9
2008 05 19    05 44.70   +02 49.9    1.616    0.961    34.0    36.0    20.7
2008 05 24    05 59.27   +03 43.7    1.567    0.901    32.8    37.4    20.6
2008 05 29    06 14.67   +04 42.4    1.512    0.838    31.6    39.3    20.4
2008 06 03    06 30.99   +05 48.4    1.450    0.772    30.5    41.8    20.2
 
2008 08 02    06 23.50   +39 02.8    0.799    0.627    38.1    89.9    20.0
2008 08 07    06 15.48   +36 50.2    0.818    0.700    43.3    83.4    20.0
2008 08 12    06 11.46   +34 29.6    0.832    0.770    48.1    78.4    20.1
2008 08 17    06 09.94   +32 06.8    0.840    0.837    52.7    74.3    20.1
2008 08 22    06 09.91   +29 43.2    0.843    0.900    57.2    70.9    20.2
2008 08 27    06 10.67   +27 18.5    0.840    0.960    61.7    68.0    20.2
2008 09 01    06 11.75   +24 51.5    0.832    1.016    66.2    65.3    20.2
2008 09 06    06 12.76   +22 21.0    0.819    1.069    70.7    62.9    20.2
2008 09 11    06 13.44   +19 45.1    0.803    1.118    75.4    60.6    20.2
2008 09 16    06 13.54   +17 02.4    0.784    1.165    80.2    58.2    20.2
2008 09 21    06 12.87   +14 11.1    0.763    1.209    85.2    55.9    20.2
2008 09 26    06 11.20   +11 09.7    0.740    1.250    90.3    53.3    20.1
2008 10 01    06 08.30   +07 56.9    0.717    1.288    95.7    50.6    20.0
2008 10 06    06 03.96   +04 32.1    0.694    1.324   101.3    47.8    19.9
2008 10 11    05 57.98   +00 55.5    0.673    1.358   107.0    44.7    19.8
2008 10 16    05 50.18   -02 51.6    0.655    1.389   112.8    41.4    19.7
2008 10 21    05 40.40   -06 45.7    0.641    1.418   118.5    38.1    19.6
2008 10 26    05 28.56   -10 41.3    0.631    1.444   123.8    34.9    19.5
2008 10 31    05 14.70   -14 30.9    0.628    1.468   128.5    31.9    19.5
2008 11 05    04 59.05   -18 05.0    0.631    1.491   132.2    29.5    19.5
2008 11 10    04 42.06   -21 14.9    0.642    1.511   134.4    27.9    19.5
2008 11 15    04 24.35   -23 53.4    0.660    1.529   135.0    27.2    19.5
2008 11 20    04 06.62   -25 56.4    0.685    1.545   134.0    27.4    19.6
2008 11 25    03 49.58   -27 23.2    0.717    1.559   131.7    28.2    19.8
2008 11 30    03 33.88   -28 16.0    0.754    1.571   128.6    29.4    19.9
2008 12 05    03 19.96   -28 39.1    0.795    1.581   124.9    30.8    20.1
2008 12 10    03 08.06   -28 37.8    0.841    1.589   120.8    32.1    20.3
2008 12 15    02 58.25   -28 17.5    0.889    1.595   116.7    33.4    20.5
2008 12 20    02 50.44   -27 42.6    0.939    1.600   112.6    34.6    20.6
2008 12 25    02 44.51   -26 56.9    0.991    1.602   108.5    35.6    20.8
2008 12 30    02 40.31   -26 03.2    1.043    1.603   104.5    36.4    20.9
 
2009 04 19    04 38.08   -02 41.3    1.559    1.100    44.6    39.9    21.0
2009 04 24    04 49.27   -01 38.0    1.531    1.049    42.9    40.8    20.9
2009 04 29    05 01.01   -00 32.3    1.496    0.995    41.3    42.0    20.8
2009 05 04    05 13.32   +00 37.0    1.455    0.937    39.8    43.5    20.7
2009 05 09    05 26.24   +01 51.8    1.407    0.876    38.3    45.5    20.5
2009 05 14    05 39.79   +03 14.6    1.352    0.812    36.7    48.1    20.3
2009 05 19    05 53.97   +04 49.2    1.290    0.744    35.2    51.5    20.1

Back to Observable Critical-List Minor Planets

MPC

Valid HTML 4.01!